{"data":{"norad_id":46984,"epoch":"2026-05-25T03:08:51.747936Z","epoch_age_seconds":74003,"freshness":"FRESH","line1":"1 46984U 20086A   26145.13115449 -.00000038  00000+0  10090-3 0  9997","line2":"2 46984  66.0392 182.9407 0007933 270.2557  89.7549 12.80929180257376","mean_motion":12.8092918,"eccentricity":0.0007933,"inclination_deg":66.0392,"raan_deg":182.9407,"arg_perigee_deg":270.2557,"mean_anomaly_deg":89.7549,"bstar":0.0001009,"rev_number":25737,"period_min":112.41839302935,"perigee_km":1331.6154329262,"apogee_km":1343.8574377186,"semimajor_km":7715.8734353224,"source":"CELESTRAK","updated_at":"2026-05-25T13:38:12.833338Z"}}